This is the latest recevied weather packets stored in our database for station/object KC5DP. If no packets are shown the sender has not sent any weather packets the latest 10 day(s).
| Time | Temp. | Humidity | Pressure | Rain* | Wind** | Luminosity | Snow |
|---|---|---|---|---|---|---|---|
| 1778095838 | 28.33° C | 82% | 1011.2 hPa | 0 mm | - | 264 W/m² | - |
| 1778095535 | 28.33° C | 82% | 1011.3 hPa | 0 mm | - | 151 W/m² | - |
| 1778095231 | 28.33° C | 83% | 1011.3 hPa | 0 mm | - | 293 W/m² | - |
| 1778094928 | 28.33° C | 84% | 1011.5 hPa | 0 mm | - | 184 W/m² | - |
| 1778094624 | 28.33° C | 83% | 1011.7 hPa | 0 mm | - | 113 W/m² | - |
| 1778094321 | 28.89° C | 81% | 1011.4 hPa | 0 mm | - | 163 W/m² | - |
| 1778094018 | 28.89° C | 82% | 1011.4 hPa | 0 mm | - | 108 W/m² | - |
| 1778093715 | 29.44° C | 81% | 1011.6 hPa | 0 mm | - | 424 W/m² | - |
| 1778093412 | 29.44° C | 80% | 1011.7 hPa | 0 mm | - | 250 W/m² | - |
| 1778093109 | 29.44° C | 81% | 1011.7 hPa | 0 mm | - | 337 W/m² | - |
| 1778092806 | 28.89° C | 81% | 1011.9 hPa | 0 mm | - | 348 W/m² | - |
| 1778092502 | 28.89° C | 82% | 1012 hPa | 0 mm | - | 291 W/m² | - |
| 1778092199 | 28.33° C | 84% | 1012.1 hPa | 0 mm | - | 284 W/m² | - |
| 1778091896 | 28.33° C | 86% | 1012.1 hPa | 0 mm | - | 349 W/m² | - |
| 1778091593 | 27.78° C | 86% | 1012.1 hPa | 0 mm | - | 285 W/m² | - |
| 1778091291 | 27.78° C | 87% | 1012.2 hPa | 0 mm | - | 403 W/m² | - |
| 1778090988 | 27.22° C | 89% | 1012.1 hPa | 0 mm | - | 575 W/m² | - |
| 1778090684 | 27.22° C | 91% | 1012.4 hPa | 0 mm | - | 353 W/m² | - |
| 1778090381 | 26.67° C | 92% | 1012.4 hPa | 0 mm | - | 316 W/m² | - |
| 1778090078 | 26.67° C | 91% | 1012.5 hPa | 0 mm | - | 169 W/m² | - |
| 1778089774 | 27.22° C | 89% | 1012.6 hPa | 0 mm | - | 43 W/m² | - |
| 1778089473 | 27.22° C | 87% | 1012.5 hPa | 0 mm | - | 83 W/m² | - |
| 1778089169 | 27.22° C | 86% | 1012.6 hPa | 0 mm | - | 149 W/m² | - |
| 1778088866 | 27.78° C | 86% | 1012.9 hPa | 0 mm | - | 149 W/m² | - |
| 1778088557 | 27.78° C | 86% | 1012.9 hPa | 0 mm | - | 149 W/m² | - |
* Rain latest hour (hover to see other rain measurements)
** Current wind speed in m/s (hover to see current wind gust speed)